Location: 22
(39.7117°N, 89.5929°W)
Time: 09:30:05
(UTC-05:00)

S-56A Canister/Altair - Pass Details

Date: 11 February 2023
Orbit: 638 x 2493 km, 38.9° (Epoch: 25 March)

Event Time Altitude Azimuth Distance (km) Brightness Sun altitude
Rises 13:26:07 0° 278° (W) 3,011 10.7 33.7°
Reaches altitude 10° 13:28:25 10° 268° (W) 2,188 10.3 33.5°
Maximum altitude 13:32:52 33° 204° (SSW) 1,375 14.8 33.2°
Drops below altitude 10° 13:38:42 10° 142° (SE) 2,896 10.9 32.8°
Sets 13:42:13 0° 134° (SE) 4,159 11.5 32.5°
